"Pseudo-MPEC" for Sar2767

Created 2024 Sep 6 2:22:37 UT using Find_Orb

Click here for an explanation of pseudo-MPECs

 
 Astrometry: 
     Sar2767* C2024 09 05.01591 23 24 52.29 +20 05 18.5    ~9517 19.8 GVNEOCPK88
     Sar2767  C2024 09 05.01813 23 24 54.00 +20 04 17.2    ~9517 19.7 GVNEOCPK88
     Sar2767  C2024 09 05.02035 23 24 55.76 +20 03 18.0    ~9517 19.7 GVNEOCPK88
     Sar2767 KC2024 09 05.03467723 25 06.77 +19 56 53.2    ~951b 19.9 RvNEOCPK88
     Sar2767 KC2024 09 05.03681323 25 08.45 +19 55 54.8    ~951b 19.5 RvNEOCPK88
     Sar2767 KC2024 09 05.04333223 25 13.45 +19 52 59.5    ~951b 19.4 RvNEOCPK88
     Sar2767 1C2024 09 05.05014 23 25 20.11 +19 49 49.1    ~956b 20.3 VXNEOCP033
     Sar2767 1C2024 09 05.05060 23 25 20.46 +19 49 36.7    ~956b 19.8 VXNEOCP033
     Sar2767 1C2024 09 05.05106 23 25 20.82 +19 49 24.3    ~956b 20.4 VXNEOCP033
     Sar2767 1C2024 09 05.05157 23 25 21.21 +19 49 10.4    ~956b 20.2 VXNEOCP033
     Sar2767 KC2024 09 05.07720 23 25 39.78 +19 37 44.5    ~952q       VNEOCPK88
     Sar2767 KC2024 09 05.08194 23 25 43.46 +19 35 35.6    ~952q 19.8 GVNEOCPK88
     Sar2767 KC2024 09 05.08684 23 25 47.30 +19 33 22.1    ~952q 19.7 GVNEOCPK88
     Sar2767 KC2024 09 05.08942 23 25 49.34 +19 32 12.2    ~952q 20.0 GVNEOCPK88
     Sar2767 KC2024 09 05.09200 23 25 51.38 +19 31 02.5    ~952q 20.0 GVNEOCPK88
     Sar2767  C2024 09 05.09676223 26 09.20 +19 32 38.8    ~952q       WNEOCPX09
     Sar2767 KC2024 09 05.09696 23 25 55.24 +19 28 47.7    ~952q 19.5 GVNEOCPK88
     Sar2767 KC2024 09 05.09893 23 25 56.77 +19 27 54.8    ~952q 20.0 GVNEOCPK88
     Sar2767 KC2024 09 05.10087 23 25 58.24 +19 27 02.9    ~952q 20.1 GVNEOCPK88
     Sar2767  C2024 09 05.10237423 26 13.47 +19 30 10.0    ~952q       WNEOCPX09
     Sar2767 mC2024 09 05.18703023 27 23.609+18 49 03.00   ~954q 19.68GVNEOCPI52
     Sar2767 mC2024 09 05.18762423 27 24.088+18 48 46.01   ~954q       VNEOCPI52
     Sar2767 mC2024 09 05.18792223 27 24.253+18 48 38.63   ~954q 20.09GVNEOCPI52
     Sar2767 KC2024 09 05.28134023 28 33.71 +18 06 49.7    ~95CM 19.5 GXNEOCP858
     Sar2767 KC2024 09 05.28656723 28 37.57 +18 04 29.2    ~95CM 19.7 GXNEOCP858
     Sar2767 KC2024 09 05.29268823 28 42.10 +18 01 44.1    ~95CM 19.8 GXNEOCP858
     Sar2767 KB2024 09 05.83843 23 35 55.14 +13 55 37.1    ~95Kb 19.8 GXNEOCPM45
     Sar2767 KB2024 09 05.84117 23 35 57.14 +13 54 23.9    ~95Kb 19.6 GXNEOCPM45
     Sar2767 KB2024 09 05.84380 23 35 59.04 +13 53 13.2    ~95Kb 19.5 GXNEOCPM45
     Sar2767 1C2024 09 05.86561 23 36 15.83 +13 43 11.6    ~95L7 20.3 VXNEOCP033
     Sar2767 1C2024 09 05.86598 23 36 16.10 +13 43 01.8    ~95L7 20.5 VXNEOCP033
     Sar2767 1C2024 09 05.86635 23 36 16.38 +13 42 51.7    ~95L7 20.6 VXNEOCP033

Station data:
(033) Karl Schwarzschild Observatory, Tautenburg  (N50.980139 E11.711240)
   Germany.  Observer B. Stecklum. 1.34-m f/3 Schmidt + CCD.
(858) Tebbutt Observatory, Edgewood  (N35.093869 W106.220000)  US/New Mexico.
    Observer F. B. Zoltowski. 0.16-m refractor + CCD0.51-m Schmidt-Cassegrain
   + CCD.
(I52) Steward Observatory, Mt. Lemmon Station  (N32.442570 W110.788920)
   US/Arizona.  Observers T. A. Pruyne, B. M. Africano, E. J. Christensen, G.
   A. Farneth, D. C. Fuls, A. R. Gibbs, A. D. Grauer, H. Gröller, J. A.
   Johnson, R. A. Kowalski, S. M. Larson, G. J. Leonard, D. Rankin, R. L.
   Seaman, F. C. Shelly, K. W. Wierzchoś. 1.0-m prime focus + CCD.
(K88) GINOP-KHK, Piszkéstető  (N47.917453 E19.893670)  Hungary.  Observer K.
   Sárneczky. 0.60-m Schmidt + CCD.
(M45) Starhopper Observatory, Sfantu Gheorghe  (N45.865582 E25.768900)
   Romania.  Observer F. Ursache. 0.41-m f/7.5 reflector + CMO.
(X09) Deep Random Survey, Rio Hurtado  (S30.526310 W70.853300)  Chile.

Orbital elements:  Sar2767
   Perihelion 2024 Aug 7.49642 +/- 0.0313 TT = 11:54:50 (JD 2460529.99642)
Epoch 2024 Sep  5.0 TT = JDT 2460558.5   Earth MOID: 0.0462   Ma: 0.0108
M  16.71043732 +/- 0.028            (J2000 ecliptic)             AutoNEOCP
n   0.58625741 +/- 0.000623         Peri.  146.92380 +/- 0.035
a   1.41387327 +/- 0.001            Node   165.99985 +/- 0.0008
e   0.2787873 +/- 0.000512          Incl.   20.16462 +/- 0.020
P   1.681/614.053d         H 25.45  G  0.15   U  7.8
q 1.01970327 +/- 8.94e-5    Q 1.80804327 +/- 0.002
From 32 observations 2024 Sept. 5 (20.4 hr); mean residual 0".48
Residuals in arcseconds: 
240905 K88  .14+  .07+    240905 K88  .52-  .89+    240905 I52  .50-  .81-    
240905 K88  .05+  1.4-    240905 K88  .28-  .07+    240905 858  .05-  .28+    
240905 K88  .67+  .75-    240905 K88  .08+  .04+    240905 858  .22-  .49+    
240905 K88  .34-  .90+    240905 K88  .43+  .22+    240905 858  .22-  .25+    
240905 K88  .03+  .15+    240905 X09  .31+  .35-    240905 M45  .06-  .19-    
240905 K88  .66-  .85+    240905 K88  .17+  .21-    240905 M45  .14+  .04+    
240905 033  .28+  .04-    240905 K88  .00   .27+    240905 M45  .08+  .18-    
240905 033  .19+  .03-    240905 K88  .69-  .94+    240905 033  .04-  .15+    
240905 033  .24+  .01-    240905 X09  .13-  .55+    240905 033  .05-  .26+    
240905 033  .16+  .15-    240905 I52  .09+  .26-    240905 033  .10+  .07+    
240905 K88  .32-  1.5+    240905 I52  .41+  1.4-    

Ephemerides (geocentric):
Date (UTC) HH   RA             Dec           delta  r     elong  mag " sig PA
---- --------  ------------   ------------  ------ ------ -----  --- --------
2024 09 06 02  23 38 55.068   +12 07 45.67  .04823 1.0532 159.0 20.0 .194 136
2024 09 06 03  23 39 26.254   +11 49 10.79  .04826 1.0533 159.3 20.0 .202 136
2024 09 06 04  23 39 57.321   +11 30 37.23  .04830 1.0534 159.5 20.0 .210 136
2024 09 06 05  23 40 28.271   +11 12 05.06  .04834 1.0535 159.8 20.0 .219 136
2024 09 06 06  23 40 59.103   +10 53 34.38  .04838 1.0536 160.0 20.0 .227 135
2024 09 06 07  23 41 29.817   +10 35 05.26  .04842 1.0536 160.2 19.9 .235 135
2024 09 06 08  23 42 00.414   +10 16 37.78  .04846 1.0537 160.4 19.9 .244 135
2024 09 06 09  23 42 30.894   +09 58 12.03  .04850 1.0538 160.7 19.9 .252 135
2024 09 06 10  23 43 01.257   +09 39 48.07  .04855 1.0539 160.9 19.9 .261 135
2024 09 06 11  23 43 31.503   +09 21 26.00  .04860 1.0540 161.1 19.9 .270 135
2024 09 06 12  23 44 01.634   +09 03 05.89  .04865 1.0541 161.3 19.9 .279 135
2024 09 06 13  23 44 31.648   +08 44 47.80  .04870 1.0542 161.5 19.9 .288 135
2024 09 06 14  23 45 01.547   +08 26 31.83  .04875 1.0543 161.7 19.9 .297 135
2024 09 06 15  23 45 31.331   +08 08 18.03  .04880 1.0544 161.9 19.9 .306 135
2024 09 06 16  23 46 00.999   +07 50 06.50  .04886 1.0545 162.1 19.9 .315 135
2024 09 06 17  23 46 30.553   +07 31 57.29  .04892 1.0546 162.3 19.9 .325 135
2024 09 06 18  23 46 59.992   +07 13 50.48  .04897 1.0547 162.5 19.9 .334 135
2024 09 06 19  23 47 29.317   +06 55 46.13  .04904 1.0548 162.7 19.9 .343 135
2024 09 06 20  23 47 58.528   +06 37 44.33  .04910 1.0548 162.9 19.9 .353 135
2024 09 06 21  23 48 27.626   +06 19 45.13  .04916 1.0549 163.1 19.9 .363 135
2024 09 06 22  23 48 56.610   +06 01 48.61  .04923 1.0550 163.2 19.9 .372 135
2024 09 06 23  23 49 25.481   +05 43 54.83  .04929 1.0551 163.4 19.9 .382 135
2024 09 07 00  23 49 54.240   +05 26 03.85  .04936 1.0552 163.6 19.9 .392 135
2024 09 07 01  23 50 22.886   +05 08 15.73  .04943 1.0553 163.7 19.9 .402 135
2024 09 07 02  23 50 51.420   +04 50 30.55  .04950 1.0554 163.9 19.9 .412 135
2024 09 07 03  23 51 19.843   +04 32 48.36  .04958 1.0555 164.0 19.9 .422 136
2024 09 07 04  23 51 48.154   +04 15 09.22  .04965 1.0556 164.2 19.9 .432 136
2024 09 07 05  23 52 16.353   +03 57 33.19  .04973 1.0557 164.3 19.9 .442 136
2024 09 07 06  23 52 44.442   +03 40 00.33  .04981 1.0558 164.4 19.9 .452 136
2024 09 07 07  23 53 12.421   +03 22 30.70  .04989 1.0559 164.6 19.9 .462 136
2024 09 07 08  23 53 40.289   +03 05 04.34  .04997 1.0560 164.7 19.9 .473 136
2024 09 07 09  23 54 08.048   +02 47 41.32  .05005 1.0561 164.8 19.9 .483 136
2024 09 07 10  23 54 35.697   +02 30 21.69  .05013 1.0562 164.9 19.9 .493 136
2024 09 07 11  23 55 03.237   +02 13 05.49  .05022 1.0563 165.0 19.9 .504 136
2024 09 07 12  23 55 30.668   +01 55 52.79  .05031 1.0563 165.1 19.9 .514 136
2024 09 07 13  23 55 57.990   +01 38 43.62  .05040 1.0564 165.2 19.9 .525 136
2024 09 07 14  23 56 25.205   +01 21 38.04  .05049 1.0565 165.3 19.9 .535 136
2024 09 07 15  23 56 52.311   +01 04 36.10  .05058 1.0566 165.4 19.9 .546 136
2024 09 07 16  23 57 19.310   +00 47 37.83  .05067 1.0567 165.4 19.9 .556 136
2024 09 07 17  23 57 46.201   +00 30 43.28  .05076 1.0568 165.5 19.9 .567 137
2024 09 07 18  23 58 12.986   +00 13 52.51  .05086 1.0569 165.6 19.9 .578 137
2024 09 07 19  23 58 39.665   -00 02 54.47  .05096 1.0570 165.6 19.9 .588 137
2024 09 07 20  23 59 06.237   -00 19 37.59  .05106 1.0571 165.7 19.9 .599 137
2024 09 07 21  23 59 32.703   -00 36 16.82  .05116 1.0572 165.7 19.9 .610 137
2024 09 07 22  23 59 59.064   -00 52 52.13  .05126 1.0573 165.8 19.9 .621 137
2024 09 07 23  00 00 25.319   -01 09 23.48  .05136 1.0574 165.8 19.9 .631 137
2024 09 08 00  00 00 51.470   -01 25 50.82  .05147 1.0575 165.8 19.9 .642 137
2024 09 08 01  00 01 17.516   -01 42 14.14  .05157 1.0576 165.8 19.9 .653 137